Date String (YYYY-MM-DD hh:mm:ss) UTC,Instrument flags,Ambient pressure (hPa),Sample flow (lpm),Bypass flow (lpm),Sample temperature (°C),Ambient temperature (°C),ASC tube jacket temperature (°C),LED temperature (°C),Box temperature (°C),Sample RH (%),Span deviation,Mass concentration (μg/m³),Mass concentration (μg/m³),Mass concentration (μg/m³)
DateTimeUTC,F1_M11,P_M11,Q1_M11,Q2_M11,T1_M11,T2_M11,T3_M11,T4_M11,T5_M11,U1_M11,ZSPAN_M11,X0_M11,X2_M11,X1_M11
2022-06-28 16:00:00,,0832.8,5.01,0.00,29.4,27.4,00.0,38.1,31.2,22.8,0000.0,0010.05,0003.91,0003.40
2022-06-28 16:01:00,,0832.7,5.00,0.00,29.3,27.3,00.0,38.1,31.1,21.7,0000.0,0009.49,0003.96,0003.40
2022-06-28 16:02:00,,0832.7,5.01,0.00,29.3,27.3,00.0,38.1,31.1,21.4,0000.0,0009.09,0003.99,0003.41
2022-06-28 16:03:00,,0832.7,5.00,0.00,29.3,27.4,00.0,38.1,31.1,21.7,0000.0,0008.93,0003.96,0003.41
2022-06-28 16:04:00,,0832.7,5.00,0.00,29.3,27.6,00.0,38.1,31.1,22.1,0000.0,0008.49,0003.95,0003.43
2022-06-28 16:05:00,,0832.7,5.01,0.00,29.3,27.7,00.0,38.1,31.1,21.9,0000.0,0008.50,0003.99,0003.45
2022-06-28 16:06:00,,0832.7,5.00,0.00,29.3,27.9,00.0,38.1,31.2,21.9,0000.0,0008.59,0003.99,0003.47
2022-06-28 16:07:00,,0832.7,5.00,0.00,29.3,28.0,00.0,38.1,31.2,22.1,0000.0,0009.13,0004.03,0003.48
2022-06-28 16:08:00,,0832.7,4.99,0.00,29.3,28.1,00.0,38.1,31.2,21.6,0000.0,0011.00,0004.06,0003.51
2022-06-28 16:09:00,,0832.7,5.00,0.00,29.3,28.2,00.0,38.1,31.3,21.5,0000.0,0010.88,0004.07,0003.52
2022-06-28 16:10:00,,0832.6,5.01,0.00,29.4,28.3,00.0,38.1,31.3,20.0,0000.0,0012.15,0004.07,0003.53
2022-06-28 16:11:00,,0832.6,5.00,0.00,29.4,28.4,00.0,38.1,31.4,19.2,0000.0,0012.11,0004.05,0003.52
2022-06-28 16:12:00,,0832.6,4.99,0.00,29.4,28.5,00.0,38.1,31.4,20.8,0000.0,0012.18,0004.04,0003.52
2022-06-28 16:13:00,,0832.6,5.00,0.00,29.4,28.0,00.0,38.1,31.3,19.9,0000.0,0012.06,0004.01,0003.51
2022-06-28 16:14:00,,0832.7,5.00,0.00,29.3,27.4,00.0,38.0,31.1,18.2,0000.0,0011.98,0004.00,0003.51
2022-06-28 16:15:00,,0832.7,5.01,0.00,29.3,27.2,00.0,38.0,31.1,18.7,0000.0,0011.97,0003.98,0003.49
2022-06-28 16:16:00,,0832.7,5.01,0.00,29.3,27.3,00.0,38.0,31.0,20.8,0000.0,0012.39,0003.96,0003.47
2022-06-28 16:17:00,,0832.7,5.00,0.00,29.3,27.4,00.0,38.0,31.0,20.9,0000.0,0013.22,0003.99,0003.46
2022-06-28 16:18:00,,0832.7,4.99,0.00,29.2,27.5,00.0,38.0,31.1,21.4,0000.0,0012.62,0003.97,0003.45
2022-06-28 16:19:00,,0832.7,4.98,0.00,29.2,27.7,00.0,38.0,31.1,20.5,0000.0,0010.86,0003.94,0003.45
2022-06-28 16:20:00,,0832.7,5.00,0.00,29.3,27.9,00.0,38.0,31.2,20.0,0000.0,0010.09,0003.93,0003.44
2022-06-28 16:21:00,,0832.7,5.00,0.00,29.3,28.0,00.0,38.1,31.2,20.4,0000.0,0008.65,0003.90,0003.42
2022-06-28 16:22:00,,0832.7,5.00,0.00,29.3,28.1,00.0,38.1,31.2,20.2,0000.0,0008.80,0003.89,0003.43
2022-06-28 16:23:00,,0832.7,4.99,0.00,29.3,28.2,00.0,38.1,31.3,21.0,0000.0,0008.87,0003.88,0003.43
2022-06-28 16:24:00,,0832.7,5.00,0.00,29.4,28.4,00.0,38.1,31.3,20.8,0000.0,0009.09,0003.85,0003.42
2022-06-28 16:25:00,,0832.7,5.01,0.00,29.4,28.4,00.0,38.1,31.3,20.6,0000.0,0009.54,0003.88,0003.43
2022-06-28 16:26:00,,0832.6,5.00,0.00,29.4,27.8,00.0,38.1,31.2,20.9,0000.0,0009.65,0003.94,0003.44
2022-06-28 16:27:00,,0832.6,4.99,0.00,29.3,27.3,00.0,38.0,31.0,20.4,0000.0,0009.21,0003.97,0003.46
2022-06-28 16:28:00,,0832.6,5.00,0.00,29.3,27.2,00.0,38.0,31.0,19.9,0000.0,0008.36,0003.96,0003.46
2022-06-28 16:29:00,,0832.6,5.00,0.00,29.2,27.3,00.0,38.0,31.0,19.7,0000.0,0008.39,0003.96,0003.46
2022-06-28 16:30:00,,0832.6,5.00,0.00,29.2,27.4,00.0,38.0,31.0,19.6,0000.0,0008.33,0003.97,0003.45
2022-06-28 16:31:00,,0832.6,5.01,0.00,29.2,27.6,00.0,38.0,31.0,20.3,0000.0,0008.37,0003.97,0003.46
2022-06-28 16:32:00,,0832.6,5.00,0.00,29.2,27.7,00.0,38.0,31.1,20.7,0000.0,0008.59,0004.00,0003.47
2022-06-28 16:33:00,,0832.6,5.01,0.00,29.2,27.9,00.0,38.0,31.1,20.1,0000.0,0008.44,0004.01,0003.48
2022-06-28 16:34:00,,0832.6,5.00,0.00,29.2,28.0,00.0,38.0,31.2,20.1,0000.0,0008.66,0004.02,0003.48
2022-06-28 16:35:00,,0832.6,4.99,0.00,29.3,28.2,00.0,38.0,31.2,19.6,0000.0,0008.37,0004.00,0003.47
2022-06-28 16:36:00,,0832.7,5.01,0.00,29.3,28.3,00.0,38.0,31.3,19.7,0000.0,0008.20,0003.98,0003.48
2022-06-28 16:37:00,,0832.6,5.00,0.00,29.3,28.4,00.0,38.0,31.3,19.5,0000.0,0008.72,0003.96,0003.46
2022-06-28 16:38:00,,0832.6,4.99,0.00,29.3,28.0,00.0,38.0,31.2,19.7,0000.0,0009.45,0003.96,0003.45
2022-06-28 16:39:00,,0832.7,4.99,0.00,29.3,27.3,00.0,38.0,31.0,20.3,0000.0,0010.10,0003.95,0003.45
2022-06-28 16:40:00,,0832.6,4.99,0.00,29.2,27.2,00.0,37.9,31.0,20.0,0000.0,0010.72,0003.91,0003.44
2022-06-28 16:41:00,,0832.6,4.99,0.00,29.2,27.2,00.0,37.9,31.0,20.3,0000.0,0010.74,0003.89,0003.44
2022-06-28 16:42:00,,0832.6,5.00,0.00,29.2,27.3,00.0,37.9,31.0,20.1,0000.0,0011.03,0003.90,0003.43
2022-06-28 16:43:00,,0832.6,5.00,0.00,29.2,27.5,00.0,37.9,31.0,20.4,0000.0,0011.33,0003.92,0003.43
2022-06-28 16:44:00,,0832.6,5.00,0.00,29.2,27.6,00.0,37.9,31.0,20.3,0000.0,0011.69,0003.90,0003.42
2022-06-28 16:45:00,,0832.6,5.01,0.00,29.2,27.8,00.0,38.0,31.1,20.3,0000.0,0011.69,0003.87,0003.42
2022-06-28 16:46:00,,0832.6,4.99,0.00,29.2,28.0,00.0,38.0,31.1,20.3,0000.0,0012.63,0003.90,0003.42
2022-06-28 16:47:00,,0832.5,5.02,0.00,29.2,28.1,00.0,38.0,31.2,19.7,0000.0,0012.46,0003.93,0003.42
2022-06-28 16:48:00,,0832.5,5.00,0.00,29.3,28.2,00.0,38.0,31.2,18.8,0000.0,0012.10,0003.95,0003.42
2022-06-28 16:49:00,,0832.6,4.99,0.00,29.3,28.3,00.0,38.0,31.3,19.1,0000.0,0011.47,0003.94,0003.41
2022-06-28 16:50:00,,0832.5,5.00,0.00,29.3,27.7,00.0,37.9,31.1,19.0,0000.0,0011.00,0003.94,0003.40
2022-06-28 16:51:00,,0832.5,5.00,0.00,29.2,27.1,00.0,37.9,30.9,19.3,0000.0,0010.32,0003.97,0003.40
2022-06-28 16:52:00,,0832.6,5.01,0.00,29.2,27.1,00.0,37.9,30.9,19.7,0000.0,0010.23,0004.01,0003.41
2022-06-28 16:53:00,,0832.6,4.99,0.00,29.1,27.2,00.0,37.9,30.9,19.1,0000.0,0010.06,0004.03,0003.41
2022-06-28 16:54:00,,0832.6,5.00,0.00,29.1,27.3,00.0,37.9,30.9,19.3,0000.0,0009.84,0004.06,0003.41
2022-06-28 16:55:00,,0832.6,5.00,0.00,29.1,27.5,00.0,37.9,31.0,19.5,0000.0,0009.68,0004.07,0003.42
2022-06-28 16:56:00,,0832.6,5.01,0.00,29.1,27.6,00.0,37.9,31.0,19.1,0000.0,0009.56,0004.08,0003.41
2022-06-28 16:57:00,,0832.6,5.00,0.00,29.1,27.8,00.0,37.9,31.0,19.0,0000.0,0008.55,0004.06,0003.41
2022-06-28 16:58:00,,0832.6,5.00,0.00,29.2,27.9,00.0,37.9,31.1,18.9,0000.0,0008.90,0004.02,0003.40
2022-06-28 16:59:00,,0832.6,5.00,0.00,29.2,28.1,00.0,37.9,31.2,18.2,0000.0,0010.32,0004.01,0003.41
